Wind_Speed
36 35 34 32 30 28 25 22 20 19 18 17 15 12 11 9 11 13 14 12 11 10 12 17 23 26 28 29 22 10 11 3 13 25 21 19 17 15 13 11 11 10 10
33 34 34 33 31 30 28 24 22 20 19 18 17 14 12 10 10 11 14 13 12 13 16 20 22 26 28 27 12 7 7 4 8 23 22 20 17 16 13 12 11 9 7
34 35 33 33 31 30 28 25 23 21 20 20 18 16 13 11 11 10 13 15 14 15 17 21 23 26 26 17 11 8 8 6 12 13 19 18 18 16 14 12 9 8 7
33 33 33 33 31 29 28 26 24 22 21 20 18 17 15 13 11 10 12 16 17 17 18 19 21 21 21 17 12 8 5 7 13 8 14 18 16 16 14 13 10 11 8
31 31 32 30 29 28 29 27 25 23 22 20 19 19 17 14 12 10 11 16 18 18 18 19 20 20 18 15 11 8 5 7 12 12 12 18 17 18 18 18 14 14 13
29 30 30 29 29 29 29 28 26 24 23 22 21 20 17 15 13 11 11 15 19 18 18 20 19 19 18 17 13 10 6 5 6 10 13 17 17 14 20 20 18 17 17
27 28 30 31 31 30 30 30 28 26 25 24 22 21 19 17 14 11 12 13 18 18 18 18 20 19 18 17 15 14 12 11 9 8 10 10 12 16 18 21 21 21 20
25 27 30 31 31 31 33 32 29 27 26 25 24 22 20 18 16 13 14 14 16 19 18 18 18 18 18 18 18 17 15 13 11 11 11 12 13 14 15 17 19 21 22
23 26 28 30 31 32 34 33 31 29 28 26 24 22 21 20 18 16 16 17 16 16 17 18 18 17 17 17 17 17 16 15 15 13 12 12 12 13 14 14 16 17 21
20 23 26 29 31 33 34 33 30 28 26 25 24 23 20 20 20 17 16 17 17 17 16 16 16 14 14 15 15 16 13 14 14 14 13 14 13 11 9 12 12 17 18
13 18 23 26 30 32 33 32 30 28 27 26 25 23 22 22 20 19 17 17 18 18 17 15 14 14 13 13 14 15 14 14 12 13 13 14 13 13 14 13 12 15 15
11 16 20 24 27 31 33 32 31 30 29 28 27 26 25 24 23 21 19 17 16 16 18 17 15 13 13 14 16 16 15 15 14 15 15 15 14 12 10 10 13 12 13
10 15 19 23 27 30 33 34 34 33 32 31 31 29 28 27 25 23 21 20 18 17 15 17 18 17 15 14 13 12 12 14 14 14 15 13 10 10 11 12 13 13 13
12 13 18 23 28 31 34 35 36 37 37 35 34 33 31 30 28 25 24 23 21 20 19 18 19 20 18 16 16 15 13 12 11 9 9 10 11 12 13 15 15 14 14
12 16 19 23 28 31 34 36 38 37 37 38 36 33 33 33 31 27 26 24 22 21 21 21 22 23 21 19 18 16 15 15 13 12 11 12 12 14 15 14 13 13 13
10 16 20 24 28 32 35 37 38 37 34 33 30 30 31 29 26 26 25 24 24 23 23 24 23 23 24 22 20 19 18 17 15 15 15 18 15 15 18 16 15 12 13
14 14 19 23 27 32 36 38 41 40 37 34 33 32 30 26 27 27 25 25 24 24 25 24 24 24 24 24 24 23 21 19 19 17 14 14 14 15 16 13 15 11 11
18 17 18 22 24 29 34 38 40 41 42 42 39 36 33 30 27 27 28 28 30 29 26 24 23 21 22 23 24 23 21 22 19 16 14 15 12 12 8 7 4 3 6
23 23 20 22 26 27 31 36 39 41 41 41 41 40 36 33 31 31 31 31 29 27 25 23 21 22 22 21 20 20 21 20 18 16 14 11 10 9 8 6 4 2 2
30 26 25 24 28 30 31 35 39 41 42 42 43 43 41 38 39 38 36 32 29 24 22 20 20 20 22 22 22 23 21 19 18 16 15 13 12 11 8 5 4 2 3
34 30 29 29 29 31 33 36 39 41 44 44 42 42 41 43 42 39 36 34 29 27 24 22 22 22 22 22 22 22 20 17 17 16 14 12 10 9 8 7 8 9 8
35 34 32 31 32 33 34 35 38 40 42 44 43 41 41 42 40 37 36 32 30 27 24 23 24 24 22 21 21 21 19 18 17 14 13 11 10 10 10 10 13 11 13
36 35 33 33 33 33 33 34 37 40 42 43 42 42 44 42 40 37 35 32 32 28 26 25 24 23 22 21 20 18 16 14 13 13 13 14 14 15 15 14 14 12 11
32 34 34 33 35 34 34 36 37 40 42 41 40 41 44 43 40 37 35 35 32 30 28 27 25 24 24 22 19 18 18 18 17 17 15 13 13 13 12 11 10 11 11
28 31 33 34 35 36 35 36 37 39 40 41 41 42 46 44 41 37 35 36 33 32 30 29 27 25 22 21 20 21 21 18 14 13 12 11 11 10 9 8 7 6 5
29 29 31 34 35 36 38 38 38 39 41 41 43 44 45 43 41 40 39 37 35 34 32 29 27 25 25 24 20 17 16 14 14 14 13 12 11 10 9 8 6 4 3
Wind_Direction
199 197 198 198 198 199 202 201 202 201 194 190 190 188 190 184 173 176 176 174 172 163 152 150 158 165 161 160 156 119 147 93 156 158 153 144 145 143 137 135 124 117 109
196 197 198 198 198 200 200 201 201 200 195 191 190 189 190 185 177 177 181 180 178 167 160 157 163 169 170 165 160 144 158 139 154 167 163 160 160 155 149 142 138 118 109
195 196 197 198 200 201 201 201 200 198 195 192 191 189 189 190 182 182 182 184 180 172 171 167 172 175 179 180 175 169 170 157 179 173 171 171 171 172 171 165 158 169 159
196 197 197 198 200 201 201 201 201 198 197 195 192 189 189 191 190 190 189 187 186 178 178 175 179 185 193 191 183 174 177 179 185 181 193 178 192 188 187 191 199 199 203
197 197 198 199 200 201 202 201 200 199 197 195 194 192 192 190 194 202 186 186 184 179 180 179 180 187 192 195 194 186 177 177 185 204 204 205 204 211 212 217 221 221 222
196 198 198 199 200 201 202 201 201 198 196 196 195 197 195 192 192 197 180 181 180 180 184 181 181 183 187 190 194 201 205 201 183 215 221 223 227 243 236 237 239 240 240
198 199 200 201 200 201 201 201 201 199 197 197 198 198 198 195 195 192 186 182 184 181 186 193 193 192 197 205 210 213 210 212 211 212 224 231 245 260 258 253 253 257 260
201 203 203 202 201 201 201 201 200 199 199 199 199 199 198 197 199 196 190 183 182 186 190 195 203 208 212 212 211 215 219 225 221 228 234 231 245 248 253 262 263 268 266
201 203 203 203 203 202 202 200 200 200 199 200 201 201 200 200 203 200 194 188 188 190 193 198 206 213 217 221 223 226 227 229 232 234 225 228 246 249 249 250 256 259 261
202 203 205 206 206 206 203 202 202 202 202 201 202 202 201 203 206 207 201 195 193 195 197 202 205 209 213 218 219 217 223 232 234 231 241 247 249 243 249 256 261 259 263
205 205 206 208 207 205 204 203 204 203 202 203 204 203 202 205 207 209 209 204 203 202 201 204 202 200 202 203 208 218 220 226 227 236 241 243 243 247 259 264 277 274 265
220 211 209 209 206 204 205 205 206 206 206 204 204 203 204 206 206 208 211 212 212 209 206 203 203 202 199 208 211 217 225 230 233 240 250 250 254 260 280 279 278 272 262
224 221 214 210 209 208 207 206 208 207 209 208 206 205 207 209 208 209 211 211 212 215 214 205 206 212 210 219 228 234 240 242 238 243 252 260 270 266 266 272 267 269 275
227 226 220 216 211 209 210 211 212 211 210 210 209 208 208 211 211 210 212 214 213 215 218 214 207 214 219 222 226 232 236 235 237 237 254 253 260 260 267 267 266 261 273
240 228 224 221 217 214 213 213 215 219 220 216 213 212 211 213 213 214 216 216 217 217 219 219 217 214 217 221 227 233 232 236 234 234 260 259 262 270 268 270 268 273 276
273 234 231 225 220 217 216 215 216 220 223 223 225 225 220 222 219 217 216 218 222 221 221 222 221 221 217 219 221 226 229 232 230 238 252 258 259 276 268 261 263 264 283
275 261 237 231 224 222 219 218 218 216 215 219 220 219 222 226 216 215 215 220 222 224 223 224 224 224 217 215 219 222 226 228 236 245 250 249 252 264 266 254 256 274 280
276 271 250 233 232 229 226 222 222 220 216 211 209 213 214 215 212 214 214 214 215 219 220 221 218 214 209 215 221 228 229 229 234 231 236 241 260 261 253 249 242 298 291
269 268 263 242 232 235 231 228 226 223 221 220 213 209 207 209 209 213 214 219 221 222 219 214 211 213 208 214 217 217 216 224 230 232 226 213 207 188 174 189 196 212 339
263 259 260 250 235 233 231 227 227 225 222 221 219 214 206 201 204 207 211 215 217 217 209 208 208 209 207 208 214 212 218 220 220 209 206 191 187 195 214 223 243 268 296
257 254 250 251 237 231 232 228 226 226 224 222 220 217 213 211 210 210 212 213 212 204 200 201 204 203 202 208 211 209 206 205 203 198 200 206 204 217 227 245 263 263 271
248 248 247 241 238 228 228 229 227 224 225 223 220 214 210 211 213 213 212 211 203 201 201 199 200 200 202 203 204 204 201 202 204 210 209 212 227 239 235 242 253 250 256
245 241 239 239 234 227 227 226 226 225 223 222 219 212 207 209 211 210 209 203 198 200 194 196 198 199 201 200 196 195 203 210 219 226 234 241 242 243 249 251 243 236 241
241 238 235 231 231 225 225 224 222 223 221 218 217 211 208 208 207 205 202 196 196 195 194 195 196 198 196 197 204 213 219 226 238 248 245 234 229 227 226 231 233 236 243
237 233 230 229 228 224 221 222 222 220 220 218 211 208 208 208 203 198 196 194 194 194 192 192 193 196 199 206 209 225 232 229 222 219 219 211 210 210 213 212 214 212 216
234 231 229 227 227 224 221 219 218 218 217 216 212 207 207 205 199 193 192 191 191 191 191 192 196 202 207 212 212 209 206 198 194 192 190 186 180 176 173 172 175 175 171
Height
1448 1457 1465 1471 1478 1483 1489 1494 1499 1503 1507 1511 1515 1517 1520 1522 1525 1527 1529 1532 1534 1537 1539 1541 1544 1546 1548 1551 1555 1558 1559 1560 1560 1567 1570 1573 1576 1579 1581 1582 1583 1584 1584
1445 1453 1460 1468 1474 1479 1485 1490 1495 1500 1504 1509 1513 1516 1518 1521 1523 1526 1528 1531 1534 1537 1540 1542 1546 1549 1553 1555 1558 1560 1561 1562 1563 1564 1569 1573 1577 1579 1581 1583 1584 1585 1586
1441 1448 1456 1464 1470 1476 1482 1487 1492 1497 1502 1506 1510 1515 1517 1520 1522 1525 1527 1530 1533 1537 1540 1542 1547 1550 1554 1557 1559 1561 1563 1564 1565 1566 1569 1573 1576 1579 1581 1583 1584 1586 1586
1438 1445 1452 1459 1466 1473 1479 1485 1489 1493 1498 1503 1508 1513 1516 1519 1521 1523 1525 1528 1532 1536 1540 1543 1547 1551 1555 1557 1559 1562 1563 1565 1567 1569 1571 1573 1575 1578 1580 1582 1583 1584 1586
1436 1442 1449 1456 1463 1469 1475 1481 1486 1490 1495 1500 1505 1509 1513 1517 1519 1521 1523 1526 1530 1534 1538 1542 1546 1550 1554 1557 1559 1562 1563 1564 1566 1569 1571 1573 1574 1576 1578 1579 1581 1582 1583
1433 1439 1446 1453 1459 1465 1472 1478 1483 1487 1492 1497 1501 1506 1511 1515 1517 1519 1522 1525 1529 1533 1537 1541 1545 1549 1552 1555 1558 1559 1562 1565 1566 1567 1569 1571 1573 1575 1576 1578 1579 1579 1581
1431 1436 1442 1448 1454 1460 1467 1473 1478 1483 1488 1494 1499 1503 1508 1512 1515 1517 1520 1523 1527 1531 1535 1539 1543 1546 1550 1553 1556 1559 1561 1563 1565 1567 1568 1569 1570 1573 1574 1575 1576 1577 1578
1428 1433 1438 1444 1451 1457 1462 1468 1473 1479 1485 1490 1494 1500 1505 1509 1512 1515 1519 1522 1526 1529 1533 1537 1541 1545 1548 1550 1553 1556 1559 1561 1563 1565 1566 1568 1568 1569 1570 1572 1573 1574 1574
1424 1429 1435 1441 1446 1452 1458 1464 1469 1475 1481 1486 1491 1496 1501 1506 1510 1513 1516 1520 1524 1527 1531 1535 1538 1542 1545 1549 1551 1554 1556 1558 1560 1562 1563 1564 1565 1566 1567 1567 1568 1569 1569
1421 1426 1432 1437 1443 1448 1455 1460 1466 1472 1479 1484 1488 1493 1498 1503 1507 1511 1514 1517 1521 1525 1528 1531 1535 1539 1542 1545 1547 1550 1553 1556 1557 1558 1560 1561 1562 1563 1564 1565 1565 1565 1565
1421 1424 1429 1434 1439 1445 1452 1458 1464 1469 1475 1480 1485 1489 1494 1499 1504 1508 1512 1515 1518 1522 1525 1529 1532 1535 1539 1542 1544 1547 1550 1552 1553 1556 1557 1558 1559 1560 1561 1562 1561 1561 1561
1419 1422 1426 1431 1436 1442 1448 1454 1459 1465 1470 1475 1480 1484 1489 1494 1499 1504 1508 1512 1516 1519 1523 1527 1530 1533 1537 1540 1542 1544 1546 1548 1550 1552 1554 1555 1556 1558 1558 1558 1557 1557 1557
1416 1419 1422 1427 1432 1437 1443 1448 1454 1459 1463 1468 1474 1478 1483 1488 1494 1499 1504 1508 1512 1516 1520 1523 1527 1530 1533 1537 1539 1541 1542 1544 1547 1548 1550 1552 1553 1554 1554 1553 1554 1554 1554
1411 1414 1418 1422 1426 1431 1437 1443 1447 1451 1455 1461 1466 1471 1477 1483 1488 1493 1498 1502 1506 1510 1514 1518 1522 1526 1530 1533 1535 1538 1540 1541 1542 1544 1547 1548 1549 1550 1550 1549 1550 1550 1549
1407 1410 1412 1416 1420 1424 1429 1434 1439 1445 1450 1454 1460 1466 1471 1475 1480 1486 1490 1495 1500 1504 1507 1511 1515 1520 1523 1527 1530 1533 1536 1537 1539 1540 1542 1544 1544 1545 1545 1546 1546 1546 1545
1402 1404 1407 1409 1413 1417 1421 1427 1432 1439 1446 1452 1458 1463 1467 1473 1478 1482 1486 1490 1494 1497 1500 1504 1507 1511 1515 1519 1523 1527 1529 1532 1533 1535 1536 1538 1539 1540 1540 1540 1542 1542 1542
1398 1399 1401 1403 1406 1410 1414 1419 1423 1430 1437 1443 1450 1456 1461 1468 1472 1476 1480 1484 1487 1490 1493 1497 1501 1504 1508 1512 1515 1519 1522 1525 1527 1529 1531 1532 1533 1534 1535 1536 1536 1537 1537
1393 1394 1395 1397 1400 1403 1408 1413 1417 1422 1426 1430 1438 1446 1454 1460 1465 1470 1474 1476 1478 1481 1485 1490 1494 1498 1503 1507 1511 1514 1518 1520 1522 1523 1524 1526 1528 1528 1529 1531 1532 1533 1534
1386 1387 1389 1391 1394 1398 1401 1407 1411 1416 1421 1427 1433 1439 1446 1452 1458 1462 1466 1468 1472 1476 1480 1484 1489 1493 1498 1502 1506 1510 1513 1515 1517 1519 1520 1521 1522 1525 1526 1528 1530 1531 1531
1378 1380 1381 1383 1386 1390 1393 1398 1403 1408 1413 1418 1424 1430 1437 1443 1446 1451 1456 1461 1466 1471 1475 1480 1485 1489 1493 1497 1501 1504 1507 1510 1511 1513 1517 1518 1520 1522 1523 1524 1525 1526 1528
1369 1372 1373 1375 1377 1381 1385 1388 1394 1400 1404 1410 1416 1423 1430 1435 1439 1444 1450 1455 1460 1465 1470 1475 1480 1484 1488 1492 1496 1500 1503 1505 1507 1510 1513 1517 1518 1519 1520 1521 1522 1523 1524
1359 1361 1365 1367 1369 1372 1377 1382 1386 1391 1397 1402 1409 1416 1424 1429 1434 1439 1445 1451 1455 1461 1466 1470 1475 1480 1484 1488 1493 1497 1500 1502 1505 1507 1510 1512 1515 1516 1517 1517 1518 1519 1520
1351 1352 1354 1358 1361 1365 1369 1373 1379 1384 1389 1396 1402 1409 1414 1420 1428 1433 1439 1445 1450 1455 1461 1466 1472 1476 1480 1484 1489 1493 1497 1500 1502 1505 1507 1508 1510 1511 1512 1512 1514 1515 1515
1343 1344 1346 1349 1353 1356 1361 1366 1371 1377 1383 1387 1395 1402 1408 1414 1421 1427 1433 1439 1446 1451 1457 1462 1467 1472 1477 1480 1485 1490 1494 1496 1498 1500 1502 1503 1505 1507 1507 1509 1510 1511 1511
1336 1337 1338 1341 1346 1350 1354 1359 1363 1368 1375 1381 1387 1394 1402 1408 1415 1420 1427 1434 1441 1447 1452 1457 1464 1468 1474 1478 1481 1486 1489 1490 1492 1496 1499 1500 1502 1503 1505 1505 1507 1507 1507
1330 1331 1333 1336 1339 1344 1347 1351 1355 1360 1366 1375 1380 1385 1395 1403 1410 1415 1421 1428 1436 1442 1449 1454 1460 1465 1469 1473 1475 1479 1483 1485 1489 1492 1495 1498 1499 1501 1503 1503 1505 1505 1505